| time (UTC) | temp F | wind direction | speed knots | gust knots | rain 1hr in | rain 24hr in | rain mn in | humidity % | barometer mb |
| 20260902194437 | 93 | 191 | 2.6 | 3.5 | 0.00 | 0.00 | 0.00 | 49 | 1015.4 |
| 20260902193932 | 94 | 143 | 4.3 | 4.3 | 0.00 | 0.00 | 0.00 | 49 | 1015.7 |
| 20260902193428 | 95 | 160 | 1.7 | 3.5 | 0.00 | 0.00 | 0.00 | 48 | 1015.7 |
| 20260902192927 | 94 | 213 | 1.7 | 3.5 | 0.00 | 0.00 | 0.00 | 51 | 1015.7 |
| 20260902192426 | 94 | 65 | 1.7 | 3.5 | 0.00 | 0.00 | 0.00 | 48 | 1015.7 |
| 20260902191925 | 93 | 211 | 1.7 | 3.5 | 0.00 | 0.00 | 0.00 | 48 | 1015.8 |
| 20260902191421 | 94 | 276 | 4.3 | 7.0 | 0.00 | 0.00 | 0.00 | 49 | 1015.9 |
| 20260902190916 | 94 | 241 | 0.9 | 2.6 | 0.00 | 0.00 | 0.00 | 49 | 1015.9 |
| 20260902190411 | 94 | 282 | 4.3 | 4.3 | 0.00 | 0.00 | 0.00 | 49 | 1016.0 |
| 20260902185906 | 93 | 312 | 0.9 | 0.9 | 0.00 | 0.00 | 0.00 | 53 | 1016.1 |
| 20260902185402 | 93 | 248 | 3.5 | 6.1 | 0.00 | 0.00 | 0.00 | 49 | 1016.0 |
| 20260902184857 | 93 | 217 | 4.3 | 4.3 | 0.00 | 0.00 | 0.00 | 51 | 1016.1 |
| 20260902184352 | 93 | 246 | 5.2 | 6.1 | 0.00 | 0.00 | 0.00 | 49 | 1016.2 |
| 20260902183848 | 93 | 349 | 0.9 | 3.5 | 0.00 | 0.00 | 0.00 | 52 | 1016.4 |
| 20260902183344 | 92 | 221 | 2.6 | 3.5 | 0.00 | 0.00 | 0.00 | 53 | 1016.4 |
| 20260902182834 | 91 | 257 | 3.5 | 6.1 | 0.00 | 0.00 | 0.00 | 53 | 1016.1 |
| 20260902182330 | 92 | 250 | 5.2 | 7.0 | 0.00 | 0.00 | 0.00 | 52 | 1016.2 |
| 20260902181826 | 91 | 103 | 1.7 | 6.1 | 0.00 | 0.00 | 0.00 | 55 | 1016.3 |
| 20260902181322 | 91 | 259 | 2.6 | 4.3 | 0.00 | 0.00 | 0.00 | 55 | 1016.5 |
| 20260902180816 | 92 | 185 | 4.3 | 6.1 | 0.00 | 0.00 | 0.00 | 54 | 1016.4 |
| 20260902180312 | 93 | 327 | 0.9 | 3.5 | 0.00 | 0.00 | 0.00 | 54 | 1016.5 |
| 20260902175807 | 91 | 211 | 4.3 | 4.3 | 0.00 | 0.00 | 0.00 | 54 | 1016.9 |
| 20260902175307 | 91 | 266 | 6.1 | 7.0 | 0.00 | 0.00 | 0.00 | 54 | 1017.0 |
| 20260902174757 | 91 | 288 | 1.7 | 4.3 | 0.00 | 0.00 | 0.00 | 59 | 1017.1 |
| 20260902174253 | 91 | 178 | 2.6 | 7.0 | 0.00 | 0.00 | 0.00 | 59 | 1017.1 |
| 20260902173749 | 92 | 252 | 3.5 | 3.5 | 0.00 | 0.00 | 0.00 | 56 | 1016.9 |
| 20260902173243 | 90 | 113 | 1.7 | 2.6 | 0.00 | 0.00 | 0.00 | 62 | 1017.1 |
| 20260902172737 | 91 | 154 | 2.6 | 3.5 | 0.00 | 0.00 | 0.00 | 62 | 1017.2 |
| 20260902172232 | 90 | 217 | 0.9 | 2.6 | 0.00 | 0.00 | 0.00 | 64 | 1017.2 |
| 20260902171727 | 89 | 278 | 2.6 | 4.3 | 0.00 | 0.00 | 0.00 | 62 | 1017.4 |
| 20260902171222 | 89 | 269 | 2.6 | 4.3 | 0.00 | 0.00 | 0.00 | 63 | 1017.4 |
| 20260902170718 | 89 | 228 | 2.6 | 4.3 | 0.00 | 0.00 | 0.00 | 63 | 1017.3 |
| 20260902170213 | 88 | 196 | 0.9 | 4.3 | 0.00 | 0.00 | 0.00 | 64 | 1017.4 |
| 20260902165708 | 89 | 268 | 4.3 | 6.1 | 0.00 | 0.00 | 0.00 | 62 | 1017.2 |
| 20260902165203 | 89 | 118 | 2.6 | 6.1 | 0.00 | 0.00 | 0.00 | 67 | 1017.3 |
| 20260902164658 | 89 | 261 | 0.9 | 0.9 | 0.00 | 0.00 | 0.00 | 64 | 1017.3 |
| 20260902164156 | 89 | 173 | 0.9 | 6.1 | 0.00 | 0.00 | 0.00 | 64 | 1017.2 |
| 20260902163652 | 88 | 246 | 3.5 | 7.0 | 0.00 | 0.00 | 0.00 | 64 | 1017.3 |
| 20260902163152 | 88 | 221 | 1.7 | 3.5 | 0.00 | 0.00 | 0.00 | 66 | 1017.4 |
| 20260902162650 | 89 | 244 | 4.3 | 6.1 | 0.00 | 0.00 | 0.00 | 65 | 1017.5 |
| 20260902162145 | 88 | 184 | 2.6 | 7.0 | 0.00 | 0.00 | 0.00 | 64 | 1017.4 |
| 20260902161640 | 88 | 281 | 4.3 | 4.3 | 0.00 | 0.00 | 0.00 | 64 | 1017.5 |
| 20260902161136 | 87 | 309 | 0.9 | 2.6 | 0.00 | 0.00 | 0.00 | 65 | 1017.6 |
| 20260902160632 | 87 | 266 | 2.6 | 3.5 | 0.00 | 0.00 | 0.00 | 66 | 1017.6 |
| 20260902160127 | 88 | 276 | 6.1 | 7.0 | 0.00 | 0.00 | 0.00 | 65 | 1017.6 |
| 20260902155625 | 87 | 256 | 2.6 | 3.5 | 0.00 | 0.00 | 0.00 | 66 | 1017.8 |
| 20260902155124 | 87 | 220 | 1.7 | 3.5 | 0.00 | 0.00 | 0.00 | 68 | 1017.7 |
| 20260902154619 | 88 | 301 | 4.3 | 4.3 | 0.00 | 0.00 | 0.00 | 65 | 1017.9 |
| 20260902154114 | 87 | 237 | 1.7 | 4.3 | 0.00 | 0.00 | 0.00 | 67 | 1017.9 |
| 20260902153613 | 87 | 121 | 0.9 | 2.6 | 0.00 | 0.00 | 0.00 | 67 | 1017.7 |
| 20260902153109 | 86 | 262 | 4.3 | 4.3 | 0.00 | 0.00 | 0.00 | 68 | 1017.6 |
| 20260902152605 | 86 | 267 | 3.5 | 3.5 | 0.00 | 0.00 | 0.00 | 71 | 1017.9 |
| 20260902152100 | 87 | 239 | 4.3 | 7.0 | 0.00 | 0.00 | 0.00 | 69 | 1017.8 |
| 20260902151556 | 86 | 65 | 0.0 | 0.9 | 0.00 | 0.00 | 0.00 | 70 | 1017.8 |
| 20260902151055 | 86 | 208 | 2.6 | 4.3 | 0.00 | 0.00 | 0.00 | 69 | 1017.8 |
| 20260902150550 | 85 | 280 | 1.7 | 4.3 | 0.00 | 0.00 | 0.00 | 70 | 1017.8 |
| 20260902150046 | 85 | 330 | 1.7 | 3.5 | 0.00 | 0.00 | 0.00 | 71 | 1017.6 |
| 20260902145541 | 84 | 249 | 0.0 | 2.6 | 0.00 | 0.00 | 0.00 | 73 | 1017.9 |
| 20260902145040 | 83 | 314 | 1.7 | 3.5 | 0.00 | 0.00 | 0.00 | 74 | 1017.6 |
| 20260902144537 | 83 | 264 | 3.5 | 6.1 | 0.00 | 0.00 | 0.00 | 74 | 1017.6 |
| 20260902144037 | 83 | 250 | 2.6 | 2.6 | 0.00 | 0.00 | 0.00 | 75 | 1017.6 |
| 20260902143532 | 84 | 34 | 0.9 | 0.9 | 0.00 | 0.00 | 0.00 | 74 | 1017.7 |
| 20260902143028 | 84 | 223 | 1.7 | 6.1 | 0.00 | 0.00 | 0.00 | 75 | 1017.6 |
| 20260902142523 | 83 | 273 | 2.6 | 3.5 | 0.00 | 0.00 | 0.00 | 75 | 1017.5 |
| 20260902142019 | 83 | 213 | 3.5 | 4.3 | 0.00 | 0.00 | 0.00 | 75 | 1017.4 |
| 20260902141518 | 83 | 281 | 4.3 | 4.3 | 0.00 | 0.00 | 0.00 | 75 | 1017.6 |
| 20260902141014 | 82 | 235 | 1.7 | 7.0 | 0.00 | 0.00 | 0.00 | 76 | 1017.4 |
| 20260902140508 | 82 | 355 | 3.5 | 6.1 | 0.00 | 0.00 | 0.00 | 77 | 1017.4 |
| 20260902140003 | 82 | 115 | 0.9 | 3.5 | 0.00 | 0.00 | 0.00 | 79 | 1017.4 |
| 20260902135458 | 82 | 105 | 0.9 | 3.5 | 0.00 | 0.00 | 0.00 | 80 | 1017.4 |
| 20260902134958 | 81 | 193 | 0.9 | 4.3 | 0.00 | 0.00 | 0.00 | 81 | 1017.5 |
| 20260902134454 | 80 | 267 | 3.5 | 4.3 | 0.00 | 0.00 | 0.00 | 81 | 1017.3 |
| 20260902133953 | 80 | 139 | 2.6 | 2.6 | 0.00 | 0.00 | 0.00 | 82 | 1017.2 |
| 20260902133448 | 80 | 234 | 1.7 | 6.1 | 0.00 | 0.00 | 0.00 | 83 | 1017.3 |
| 20260902132943 | 79 | 113 | 1.7 | 4.3 | 0.00 | 0.00 | 0.00 | 84 | 1017.4 |
| 20260902132438 | 79 | 243 | 1.7 | 4.3 | 0.00 | 0.00 | 0.00 | 84 | 1017.2 |
| 20260902131933 | 79 | 184 | 1.7 | 6.1 | 0.00 | 0.00 | 0.00 | 84 | 1017.4 |
| 20260902131430 | 78 | 229 | 0.9 | 3.5 | 0.00 | 0.00 | 0.00 | 86 | 1017.4 |
| 20260902130930 | 78 | 252 | 2.6 | 3.5 | 0.00 | 0.00 | 0.00 | 86 | 1017.3 |
| 20260902130426 | 78 | 287 | 2.6 | 3.5 | 0.00 | 0.00 | 0.00 | 87 | 1017.4 |
| 20260902125925 | 77 | 107 | 0.9 | 0.9 | 0.00 | 0.00 | 0.00 | 88 | 1017.4 |
| 20260902125422 | 77 | 276 | 1.7 | 2.6 | 0.00 | 0.00 | 0.00 | 87 | 1017.4 |
| 20260902124917 | 77 | 106 | 0.9 | 0.9 | 0.00 | 0.00 | 0.00 | 88 | 1017.3 |
| 20260902124413 | 76 | 306 | 0.0 | 2.6 | 0.00 | 0.00 | 0.00 | 90 | 1017.5 |
| 20260902123908 | 75 | 147 | 0.0 | 0.0 | 0.00 | 0.00 | 0.00 | 92 | 1017.5 |
| 20260902123405 | 75 | 152 | 1.7 | 2.6 | 0.00 | 0.00 | 0.00 | 93 | 1017.5 |
| 20260902122903 | 75 | 232 | 0.0 | 2.6 | 0.00 | 0.00 | 0.00 | 93 | 1017.5 |
| 20260902122359 | 74 | 233 | 0.0 | 2.6 | 0.00 | 0.00 | 0.00 | 93 | 1017.4 |
| 20260902121854 | 74 | 232 | 0.9 | 0.9 | 0.00 | 0.00 | 0.00 | 95 | 1017.4 |
| 20260902121348 | 73 | 234 | 0.0 | 0.9 | 0.00 | 0.00 | 0.00 | 96 | 1017.3 |
| 20260902120843 | 73 | 230 | 0.9 | 0.9 | 0.00 | 0.00 | 0.00 | 96 | 1017.1 |
| 20260902120340 | 73 | 230 | 0.0 | 0.9 | 0.00 | 0.00 | 0.00 | 97 | 1017.4 |
| 20260902115834 | 73 | 230 | 0.0 | 0.9 | 0.00 | 0.00 | 0.00 | 97 | 1017.3 |
| 20260902115331 | 73 | 230 | 0.0 | 0.0 | 0.00 | 0.00 | 0.00 | 97 | 1017.3 |
| 20260902114827 | 73 | 230 | 0.0 | 0.9 | 0.00 | 0.00 | 0.00 | 98 | 1017.1 |
| 20260902114323 | 72 | 229 | 0.9 | 0.9 | 0.00 | 0.00 | 0.00 | 98 | 1016.9 |
| 20260902113822 | 72 | 206 | 0.0 | 0.0 | 0.00 | 0.00 | 0.00 | 98 | 1016.7 |
| 20260902113317 | 72 | 222 | 0.0 | 0.9 | 0.00 | 0.00 | 0.00 | 98 | 1016.6 |
| 20260902112812 | 72 | 222 | 0.9 | 2.6 | 0.00 | 0.00 | 0.00 | 98 | 1016.6 |
| 20260902112309 | 72 | 230 | 1.7 | 2.6 | 0.00 | 0.00 | 0.00 | 98 | 1016.7 |
| 20260902111803 | 72 | 227 | 0.9 | 0.9 | 0.00 | 0.00 | 0.00 | 98 | 1016.5 |
| 20260902111300 | 72 | 227 | 0.0 | 0.9 | 0.00 | 0.00 | 0.00 | 98 | 1016.5 |
| 20260902110755 | 72 | 227 | 0.0 | 0.0 | 0.00 | 0.00 | 0.00 | 98 | 1016.4 |
| 20260902110251 | 72 | 227 | 0.0 | 0.0 | 0.00 | 0.00 | 0.00 | 98 | 1016.7 |
| 20260902105751 | 72 | 227 | 0.0 | 0.0 | 0.00 | 0.00 | 0.00 | 98 | 1016.6 |
| 20260902105246 | 72 | 227 | 0.0 | 0.0 | 0.00 | 0.00 | 0.00 | 98 | 1016.6 |
| 20260902104742 | 72 | 227 | 0.0 | 0.9 | 0.00 | 0.00 | 0.00 | 98 | 1016.5 |
| 20260902104237 | 72 | 226 | 0.9 | 0.0 | 0.00 | 0.00 | 0.00 | 98 | 1016.3 |
| 20260902103736 | 72 | 225 | 0.0 | 0.9 | 0.00 | 0.00 | 0.00 | 98 | 1016.3 |
| 20260902103231 | 72 | 225 | 0.9 | 0.9 | 0.00 | 0.00 | 0.00 | 98 | 1016.4 |
| 20260902102727 | 72 | 221 | 0.0 | 0.9 | 0.00 | 0.00 | 0.00 | 98 | 1016.3 |
| 20260902102224 | 73 | 219 | 0.0 | 0.9 | 0.00 | 0.00 | 0.00 | 98 | 1016.4 |
| 20260902101719 | 72 | 219 | 0.9 | 0.9 | 0.00 | 0.00 | 0.00 | 98 | 1016.3 |
| 20260902101214 | 72 | 218 | 0.0 | 2.6 | 0.00 | 0.00 | 0.00 | 98 | 1016.4 |
| 20260902100713 | 72 | 221 | 0.9 | 0.9 | 0.00 | 0.00 | 0.00 | 98 | 1016.2 |
| 20260902100209 | 73 | 228 | 0.9 | 0.9 | 0.00 | 0.00 | 0.00 | 98 | 1016.4 |
| 20260902095708 | 72 | 240 | 0.9 | 3.5 | 0.00 | 0.00 | 0.00 | 98 | 1016.4 |
| 20260902095202 | 72 | 239 | 0.9 | 2.6 | 0.00 | 0.00 | 0.00 | 98 | 1016.4 |
| 20260902094657 | 72 | 198 | 0.9 | 3.5 | 0.00 | 0.00 | 0.00 | 99 | 1016.5 |
| 20260902094154 | 72 | 246 | 0.9 | 0.9 | 0.00 | 0.00 | 0.00 | 98 | 1016.5 |
| 20260902093653 | 72 | 225 | 0.0 | 0.9 | 0.00 | 0.00 | 0.00 | 98 | 1016.4 |
| 20260902093148 | 72 | 233 | 0.0 | 2.6 | 0.00 | 0.00 | 0.00 | 99 | 1016.6 |
| 20260902092643 | 72 | 245 | 0.0 | 2.6 | 0.00 | 0.00 | 0.00 | 98 | 1016.6 |
| 20260902092142 | 72 | 218 | 0.0 | 0.9 | 0.00 | 0.00 | 0.00 | 98 | 1016.6 |
| 20260902091637 | 72 | 237 | 0.9 | 0.9 | 0.00 | 0.00 | 0.00 | 99 | 1016.9 |
| 20260902091134 | 71 | 237 | 0.0 | 0.9 | 0.00 | 0.00 | 0.00 | 98 | 1017.0 |
| 20260902090629 | 71 | 237 | 0.9 | 0.9 | 0.00 | 0.00 | 0.00 | 99 | 1016.9 |
| 20260902090128 | 71 | 155 | 0.0 | 0.0 | 0.00 | 0.00 | 0.00 | 98 | 1016.7 |
| 20260902085624 | 71 | 155 | 0.0 | 0.0 | 0.00 | 0.00 | 0.00 | 98 | 1016.7 |
| 20260902085118 | 71 | 155 | 0.0 | 0.0 | 0.00 | 0.00 | 0.00 | 98 | 1016.6 |
| 20260902084615 | 71 | 155 | 0.0 | 0.0 | 0.00 | 0.00 | 0.00 | 98 | 1016.6 |
| 20260902084111 | 71 | 155 | 0.0 | 0.0 | 0.00 | 0.00 | 0.00 | 98 | 1016.7 |
| 20260902083605 | 71 | 155 | 0.0 | 0.0 | 0.00 | 0.00 | 0.00 | 98 | 1016.7 |
| 20260902083105 | 71 | 155 | 0.0 | 0.9 | 0.00 | 0.00 | 0.00 | 98 | 1016.6 |
| 20260902082601 | 71 | 155 | 0.0 | 0.0 | 0.00 | 0.00 | 0.00 | 98 | 1016.5 |
| 20260902082057 | 71 | 155 | 0.0 | 0.0 | 0.00 | 0.00 | 0.00 | 98 | 1016.6 |
| 20260902081554 | 71 | 155 | 0.0 | 0.0 | 0.00 | 0.00 | 0.00 | 98 | 1016.7 |
| 20260902081053 | 71 | 155 | 0.0 | 0.0 | 0.00 | 0.00 | 0.00 | 98 | 1016.6 |
| 20260902080548 | 71 | 155 | 0.0 | 0.0 | 0.00 | 0.00 | 0.00 | 98 | 1016.4 |
| 20260902080045 | 71 | 155 | 0.0 | 0.0 | 0.00 | 0.00 | 0.00 | 98 | 1016.5 |
| 20260902075544 | 71 | 155 | 0.0 | 0.0 | 0.00 | 0.00 | 0.00 | 98 | 1016.5 |
| 20260902075040 | 71 | 155 | 0.0 | 0.0 | 0.00 | 0.00 | 0.00 | 98 | 1016.6 |
| 20260902074536 | 71 | 155 | 0.0 | 0.0 | 0.00 | 0.00 | 0.00 | 98 | 1016.6 |
| 20260902074031 | 71 | 155 | 0.0 | 0.0 | 0.00 | 0.00 | 0.00 | 98 | 1016.6 |
| 20260902073526 | 71 | 155 | 0.0 | 0.0 | 0.00 | 0.00 | 0.00 | 98 | 1016.5 |
| 20260902073023 | 71 | 155 | 0.0 | 0.0 | 0.00 | 0.00 | 0.00 | 98 | 1016.7 |
| 20260902072518 | 72 | 155 | 0.0 | 0.0 | 0.00 | 0.00 | 0.00 | 98 | 1016.6 |
| 20260902072015 | 72 | 155 | 0.0 | 0.0 | 0.00 | 0.00 | 0.00 | 98 | 1016.5 |
| 20260902071514 | 71 | 155 | 0.0 | 0.0 | 0.00 | 0.00 | 0.00 | 97 | 1016.7 |
| 20260902071011 | 72 | 155 | 0.9 | 0.9 | 0.00 | 0.00 | 0.00 | 97 | 1016.6 |
| 20260902070506 | 72 | 155 | 0.0 | 0.0 | 0.00 | 0.00 | 0.00 | 97 | 1017.0 |
| 20260902070007 | 72 | 155 | 0.0 | 0.0 | 0.00 | 0.00 | 0.00 | 97 | 1016.9 |
| 20260902065500 | 72 | 157 | 0.0 | 0.0 | 0.00 | 0.00 | 0.00 | 97 | 1017.0 |
| 20260902064955 | 72 | 157 | 0.0 | 0.0 | 0.00 | 0.00 | 0.00 | 97 | 1016.9 |
| 20260902064450 | 71 | 241 | 0.0 | 0.0 | 0.00 | 0.00 | 0.00 | 97 | 1016.9 |
| 20260902063946 | 71 | 241 | 0.0 | 0.0 | 0.00 | 0.00 | 0.00 | 97 | 1017.0 |
| 20260902063445 | 72 | 241 | 0.0 | 0.9 | 0.00 | 0.00 | 0.00 | 97 | 1017.1 |
| 20260902062941 | 72 | 241 | 0.0 | 0.0 | 0.00 | 0.00 | 0.00 | 97 | 1016.9 |
| 20260902062440 | 72 | 241 | 0.0 | 0.0 | 0.00 | 0.00 | 0.00 | 97 | 1017.1 |
| 20260902061935 | 71 | 241 | 0.0 | 0.0 | 0.00 | 0.00 | 0.00 | 97 | 1017.0 |
| 20260902061430 | 72 | 241 | 0.0 | 0.0 | 0.00 | 0.00 | 0.00 | 97 | 1017.0 |
| 20260902060926 | 72 | 241 | 0.0 | 0.9 | 0.00 | 0.00 | 0.00 | 97 | 1017.1 |
| 20260902060422 | 72 | 241 | 0.0 | 0.0 | 0.00 | 0.00 | 0.00 | 97 | 1016.9 |
| 20260902055918 | 72 | 241 | 0.0 | 0.9 | 0.00 | 0.00 | 0.00 | 97 | 1017.0 |
| 20260902055414 | 72 | 241 | 0.0 | 0.0 | 0.00 | 0.00 | 0.00 | 97 | 1017.1 |
| 20260902054909 | 72 | 241 | 0.0 | 0.0 | 0.00 | 0.00 | 0.00 | 97 | 1016.9 |
| 20260902054404 | 72 | 241 | 0.0 | 0.0 | 0.00 | 0.00 | 0.00 | 97 | 1017.1 |
| 20260902053859 | 72 | 241 | 0.0 | 0.0 | 0.00 | 0.00 | 0.00 | 97 | 1017.0 |
| 20260902053354 | 72 | 241 | 0.0 | 0.9 | 0.00 | 0.00 | 0.00 | 96 | 1017.1 |
| 20260902052853 | 72 | 241 | 0.0 | 0.0 | 0.00 | 0.00 | 0.00 | 96 | 1016.9 |
| 20260902052349 | 72 | 241 | 0.0 | 0.0 | 0.00 | 0.00 | 0.00 | 96 | 1016.5 |
| 20260902051843 | 72 | 241 | 0.0 | 0.0 | 0.00 | 0.00 | 0.00 | 96 | 1016.7 |
| 20260902051337 | 72 | 241 | 0.0 | 0.0 | 0.00 | 0.00 | 0.00 | 96 | 1016.7 |
| 20260902050832 | 72 | 241 | 0.0 | 0.9 | 0.00 | 0.00 | 0.00 | 96 | 1016.6 |
| 20260902050331 | 72 | 241 | 0.0 | 0.0 | 0.00 | 0.00 | 0.00 | 96 | 1016.5 |
| 20260902045826 | 73 | 241 | 0.0 | 0.0 | 0.00 | 0.00 | 0.00 | 95 | 1016.5 |
| 20260902045322 | 73 | 241 | 0.0 | 0.0 | 0.00 | 0.00 | 0.00 | 95 | 1016.5 |
| 20260902044819 | 73 | 241 | 0.0 | 0.0 | 0.00 | 0.00 | 0.00 | 95 | 1016.3 |
| 20260902044314 | 73 | 241 | 0.0 | 0.0 | 0.00 | 0.00 | 0.00 | 95 | 1016.6 |
| 20260902043814 | 73 | 241 | 0.0 | 0.0 | 0.00 | 0.00 | 0.00 | 95 | 1016.4 |
| 20260902043309 | 73 | 241 | 0.0 | 0.0 | 0.00 | 0.00 | 0.00 | 94 | 1016.6 |
| 20260902042809 | 73 | 241 | 0.0 | 0.0 | 0.00 | 0.00 | 0.00 | 94 | 1016.4 |
| 20260902042308 | 73 | 241 | 0.0 | 0.9 | 0.00 | 0.00 | 0.00 | 94 | 1016.6 |
| 20260902041759 | 73 | 241 | 0.9 | 2.6 | 0.00 | 0.00 | 0.00 | 93 | 1016.5 |
| 20260902041259 | 74 | 242 | 0.9 | 0.9 | 0.00 | 0.00 | 0.00 | 93 | 1016.5 |
| 20260902040758 | 74 | 241 | 0.0 | 0.9 | 0.00 | 0.00 | 0.00 | 92 | 1016.6 |
| 20260902040254 | 75 | 241 | 0.0 | 0.0 | 0.00 | 0.00 | 0.00 | 92 | 1016.4 |
| 20260902035752 | 75 | 242 | 0.9 | 0.9 | 0.00 | 0.00 | 0.00 | 92 | 1016.5 |
| 20260902035248 | 74 | 228 | 0.9 | 2.6 | 0.00 | 0.00 | 0.00 | 93 | 1016.5 |
| 20260902034746 | 74 | 270 | 0.0 | 0.9 | 0.00 | 0.00 | 0.00 | 93 | 1016.5 |
| 20260902034242 | 74 | 271 | 0.9 | 0.9 | 0.00 | 0.00 | 0.00 | 92 | 1016.5 |
| 20260902033739 | 74 | 271 | 0.9 | 0.9 | 0.00 | 0.00 | 0.00 | 92 | 1016.3 |
| 20260902033235 | 75 | 271 | 0.0 | 0.0 | 0.00 | 0.00 | 0.00 | 92 | 1016.4 |
| 20260902032733 | 75 | 271 | 0.0 | 0.9 | 0.00 | 0.00 | 0.00 | 90 | 1016.2 |
| 20260902032229 | 75 | 271 | 0.9 | 0.9 | 0.00 | 0.00 | 0.00 | 89 | 1016.4 |
| 20260902031723 | 75 | 270 | 1.7 | 3.5 | 0.00 | 0.00 | 0.00 | 90 | 1016.4 |
| 20260902031218 | 75 | 264 | 0.9 | 2.6 | 0.00 | 0.00 | 0.00 | 90 | 1016.5 |
| 20260902030714 | 75 | 243 | 0.0 | 0.9 | 0.00 | 0.00 | 0.00 | 89 | 1016.4 |
| 20260902030214 | 76 | 251 | 0.0 | 0.9 | 0.00 | 0.00 | 0.00 | 89 | 1016.6 |
| 20260902025713 | 75 | 216 | 0.9 | 2.6 | 0.00 | 0.00 | 0.00 | 90 | 1016.3 |
| 20260902025208 | 75 | 258 | 2.6 | 2.6 | 0.00 | 0.00 | 0.00 | 91 | 1016.3 |
| 20260902024703 | 74 | 256 | 1.7 | 0.9 | 0.00 | 0.00 | 0.00 | 92 | 1016.3 |
| 20260902024158 | 74 | 256 | 0.9 | 0.9 | 0.00 | 0.00 | 0.00 | 93 | 1016.2 |
| 20260902023654 | 74 | 256 | 0.9 | 0.9 | 0.00 | 0.00 | 0.00 | 93 | 1016.2 |
| 20260902023149 | 74 | 255 | 0.9 | 0.9 | 0.00 | 0.00 | 0.00 | 93 | 1016.3 |
| 20260902022648 | 74 | 256 | 0.0 | 0.0 | 0.00 | 0.00 | 0.00 | 93 | 1016.2 |
| 20260902022144 | 74 | 256 | 0.0 | 0.0 | 0.00 | 0.00 | 0.00 | 92 | 1016.2 |
| 20260902021640 | 74 | 256 | 0.9 | 0.9 | 0.00 | 0.00 | 0.00 | 92 | 1016.3 |
| 20260902021134 | 74 | 256 | 0.0 | 0.0 | 0.00 | 0.00 | 0.00 | 91 | 1016.3 |
| 20260902020631 | 75 | 256 | 0.0 | 0.0 | 0.00 | 0.00 | 0.00 | 90 | 1016.1 |
| 20260902020126 | 75 | 256 | 0.0 | 0.0 | 0.00 | 0.00 | 0.00 | 89 | 1015.9 |
| 20260902015622 | 75 | 256 | 0.0 | 0.0 | 0.00 | 0.00 | 0.00 | 89 | 1016.2 |
| 20260902015118 | 75 | 256 | 0.0 | 0.0 | 0.00 | 0.00 | 0.00 | 89 | 1016.1 |
| 20260902014613 | 75 | 256 | 0.0 | 0.0 | 0.00 | 0.00 | 0.00 | 88 | 1016.1 |
| 20260902014109 | 75 | 256 | 0.0 | 0.0 | 0.00 | 0.00 | 0.00 | 87 | 1016.1 |
| 20260902013608 | 76 | 256 | 0.0 | 0.0 | 0.00 | 0.00 | 0.00 | 87 | 1016.1 |
| 20260902013104 | 76 | 256 | 0.0 | 0.0 | 0.00 | 0.00 | 0.00 | 86 | 1016.0 |
| 20260902012559 | 76 | 256 | 0.0 | 0.0 | 0.00 | 0.00 | 0.00 | 86 | 1016.1 |
| 20260902012054 | 76 | 256 | 0.0 | 0.0 | 0.00 | 0.00 | 0.00 | 86 | 1016.0 |
| 20260902011550 | 76 | 256 | 0.0 | 0.0 | 0.00 | 0.00 | 0.00 | 86 | 1015.9 |
| 20260902011049 | 77 | 256 | 0.0 | 0.0 | 0.00 | 0.00 | 0.00 | 85 | 1015.9 |
| 20260902010549 | 77 | 256 | 0.0 | 0.9 | 0.00 | 0.00 | 0.00 | 85 | 1015.8 |
| 20260902010045 | 77 | 256 | 0.0 | 0.0 | 0.00 | 0.00 | 0.00 | 84 | 1015.8 |
| 20260902005542 | 77 | 256 | 0.9 | 0.9 | 0.00 | 0.00 | 0.00 | 84 | 1015.7 |
| 20260902005039 | 77 | 302 | 0.0 | 0.9 | 0.00 | 0.00 | 0.00 | 83 | 1015.4 |
| 20260902004538 | 78 | 246 | 0.0 | 0.0 | 0.00 | 0.00 | 0.00 | 82 | 1015.5 |
| 20260902004033 | 78 | 246 | 0.0 | 2.6 | 0.00 | 0.00 | 0.00 | 81 | 1015.5 |
| 20260902003529 | 78 | 211 | 0.9 | 0.9 | 0.00 | 0.00 | 0.00 | 80 | 1015.5 |
| 20260902003024 | 79 | 140 | 0.0 | 0.0 | 0.00 | 0.00 | 0.00 | 80 | 1015.4 |
| 20260902002520 | 79 | 218 | 1.7 | 0.9 | 0.00 | 0.00 | 0.00 | 79 | 1015.5 |
| 20260902002015 | 79 | 214 | 0.0 | 0.0 | 0.00 | 0.00 | 0.00 | 79 | 1015.5 |
| 20260902001509 | 79 | 214 | 0.0 | 0.0 | 0.00 | 0.00 | 0.00 | 78 | 1015.4 |
| 20260902001004 | 80 | 209 | 0.0 | 0.0 | 0.00 | 0.00 | 0.00 | 77 | 1015.4 |
| 20260902000459 | 80 | 209 | 0.0 | 0.0 | 0.00 | 0.00 | 0.00 | 76 | 1015.5 |
| 20260901235954 | 80 | 210 | 0.9 | 2.6 | 0.00 | 0.00 | 0.00 | 75 | 1015.4 |
| 20260901235448 | 81 | 262 | 0.9 | 0.9 | 0.00 | 0.00 | 0.00 | 75 | 1015.5 |
| 20260901234944 | 81 | 262 | 0.0 | 0.9 | 0.00 | 0.00 | 0.00 | 74 | 1015.6 |
| 20260901234438 | 81 | 315 | 0.9 | 2.6 | 0.00 | 0.00 | 0.00 | 74 | 1015.7 |
| 20260901233933 | 81 | 282 | 1.7 | 3.5 | 0.00 | 0.00 | 0.00 | 74 | 1015.7 |
| 20260901233428 | 81 | 129 | 0.0 | 0.9 | 0.00 | 0.00 | 0.00 | 73 | 1015.8 |
| 20260901232925 | 82 | 273 | 0.0 | 0.9 | 0.00 | 0.00 | 0.00 | 73 | 1015.7 |
| 20260901232425 | 82 | 283 | 1.7 | 2.6 | 0.00 | 0.00 | 0.00 | 72 | 1015.9 |
| 20260901231920 | 82 | 281 | 0.9 | 4.3 | 0.00 | 0.00 | 0.00 | 72 | 1015.8 |
| 20260901231416 | 82 | 275 | 2.6 | 3.5 | 0.00 | 0.00 | 0.00 | 71 | 1015.9 |
| 20260901230912 | 82 | 274 | 3.5 | 6.1 | 0.00 | 0.00 | 0.00 | 72 | 1016.0 |
| 20260901230412 | 82 | 266 | 2.6 | 6.1 | 0.00 | 0.00 | 0.00 | 72 | 1016.1 |
| 20260901225907 | 82 | 249 | 0.0 | 3.5 | 0.00 | 0.00 | 0.00 | 72 | 1016.1 |
| 20260901225406 | 82 | 285 | 2.6 | 7.0 | 0.00 | 0.00 | 0.00 | 71 | 1016.1 |
| 20260901224901 | 83 | 284 | 5.2 | 8.7 | 0.00 | 0.00 | 0.00 | 70 | 1016.0 |
| 20260901224358 | 83 | 231 | 2.6 | 6.1 | 0.00 | 0.00 | 0.00 | 70 | 1016.2 |
| 20260901223854 | 84 | 262 | 1.7 | 3.5 | 0.00 | 0.00 | 0.00 | 69 | 1016.2 |
| 20260901223349 | 85 | 273 | 4.3 | 6.1 | 0.00 | 0.00 | 0.00 | 67 | 1016.2 |
| 20260901222845 | 86 | 128 | 2.6 | 8.7 | 0.00 | 0.00 | 0.00 | 66 | 1016.3 |
| 20260901222341 | 86 | 345 | 5.2 | 9.6 | 0.00 | 0.00 | 0.00 | 64 | 1016.2 |
| 20260901221837 | 86 | 265 | 4.3 | 8.7 | 0.00 | 0.00 | 0.00 | 65 | 1016.1 |
| 20260901221332 | 86 | 217 | 4.3 | 8.7 | 0.00 | 0.00 | 0.00 | 66 | 1016.1 |
| 20260901220832 | 86 | 107 | 1.7 | 3.5 | 0.00 | 0.00 | 0.00 | 67 | 1016.2 |
| 20260901220331 | 86 | 208 | 3.5 | 6.1 | 0.00 | 0.00 | 0.00 | 67 | 1016.1 |
| 20260901215830 | 86 | 352 | 2.6 | 7.0 | 0.00 | 0.00 | 0.00 | 68 | 1016.2 |
| 20260901215329 | 86 | 198 | 0.9 | 7.0 | 0.00 | 0.00 | 0.00 | 68 | 1016.1 |
| 20260901214828 | 85 | 282 | 2.6 | 4.3 | 0.00 | 0.00 | 0.00 | 69 | 1016.1 |
| 20260901214327 | 86 | 238 | 7.0 | 9.6 | 0.00 | 0.00 | 0.00 | 66 | 1016.1 |
| 20260901213822 | 86 | 208 | 3.5 | 10.4 | 0.00 | 0.00 | 0.00 | 67 | 1016.0 |
| 20260901213322 | 87 | 164 | 3.5 | 6.1 | 0.00 | 0.00 | 0.00 | 65 | 1016.0 |
| 20260901212816 | 87 | 218 | 2.6 | 6.1 | 0.00 | 0.00 | 0.00 | 66 | 1016.1 |
| 20260901212312 | 86 | 264 | 3.5 | 10.4 | 0.00 | 0.00 | 0.00 | 67 | 1016.2 |
| 20260901211808 | 86 | 249 | 3.5 | 9.6 | 0.00 | 0.00 | 0.00 | 66 | 1016.2 |
| 20260901211304 | 87 | 242 | 6.1 | 8.7 | 0.00 | 0.00 | 0.00 | 65 | 1016.3 |
| 20260901210759 | 87 | 303 | 1.7 | 2.6 | 0.00 | 0.00 | 0.00 | 67 | 1016.2 |
| 20260901210254 | 87 | 208 | 2.6 | 6.1 | 0.00 | 0.00 | 0.00 | 65 | 1016.1 |
| 20260901205751 | 88 | 19 | 1.7 | 2.6 | 0.00 | 0.00 | 0.00 | 65 | 1016.2 |
| 20260901205250 | 88 | 224 | 5.2 | 7.0 | 0.00 | 0.00 | 0.00 | 64 | 1016.2 |
| 20260901204746 | 87 | 235 | 4.3 | 8.7 | 0.00 | 0.00 | 0.00 | 64 | 1016.1 |
| 20260901204242 | 87 | 188 | 2.6 | 6.1 | 0.00 | 0.00 | 0.00 | 66 | 1016.3 |
| 20260901203737 | 87 | 145 | 2.6 | 3.5 | 0.00 | 0.00 | 0.00 | 67 | 1016.3 |
| 20260901203236 | 86 | 226 | 0.9 | 4.3 | 0.00 | 0.00 | 0.00 | 67 | 1016.2 |
| 20260901202736 | 86 | 284 | 1.7 | 7.0 | 0.00 | 0.00 | 0.00 | 66 | 1016.4 |
| 20260901202232 | 86 | 317 | 2.6 | 7.0 | 0.00 | 0.00 | 0.00 | 66 | 1016.3 |
| 20260901201726 | 85 | 253 | 2.6 | 7.0 | 0.00 | 0.00 | 0.00 | 67 | 1016.4 |
| 20260901201221 | 86 | 202 | 3.5 | 8.7 | 0.00 | 0.00 | 0.00 | 65 | 1016.2 |
| 20260901200720 | 87 | 128 | 4.3 | 7.0 | 0.00 | 0.00 | 0.00 | 62 | 1016.0 |
| 20260901200216 | 88 | 257 | 6.1 | 8.7 | 0.00 | 0.00 | 0.00 | 61 | 1015.9 |
| 20260901195714 | 88 | 251 | 6.1 | 8.7 | 0.00 | 0.00 | 0.00 | 61 | 1016.0 |
| 20260901195208 | 89 | 287 | 2.6 | 7.0 | 0.00 | 0.00 | 0.00 | 59 | 1015.9 |